Location: Newark
(15.4608°S, 41.1635°W)
Time: 16:43:18
(UTC+00:00)

Transit 2A - Visible Passes

Search period start: 26 February 2021 00:00
Search period end: 08 March 2021 00:00
Orbit: 600 x 958 km, 66.7° (Epoch: 25 February)

Date Brightness Start Highest point End Pass type
(mag) Time Alt. Az. Time Alt. Az. Time Alt. Az.
27 Feb 9.4 21:40:50 10° W 21:42:55 12° WNW 21:44:58 10° NW visible
01 Mar 8.0 08:03:49 10° NNE 08:07:47 28° ENE 08:12:06 10° SE visible
02 Mar 8.6 07:30:55 10° NE 07:33:48 16° ENE 07:36:51 10° ESE visible
04 Mar 5.8 08:03:24 10° NNW 08:08:08 87° WSW 08:13:26 10° SSE visible
05 Mar 6.6 07:29:26 10° N 07:34:02 54° ENE 07:39:09 10° SSE visible
06 Mar 7.5 06:56:37 14° NNE 07:00:00 31° ENE 07:04:34 10° SE visible
07 Mar 8.2 06:24:36 16° NE 06:26:01 18° ENE 06:29:29 10° ESE visible
07 Mar 6.9 08:05:11 12° WNW 08:08:50 27° WSW 08:13:20 10° S visible
